#timestamp,LO_Frequency,Hit,StdDev 
1506898815.1,286046996.2,N
1506898835.9,286046994.1,Y
1506898855.7,286046996.7,P
1506898875.6,286046999.2,N
1506898895.4,286046997.5,N
1506898915.2,286046996.4,N
1506898935.1,286046996.1,Y
1506898936.0,286046996.1,P
1506898955.8,286047000.7,N
1506898975.6,286046998.8,N
1506898995.5,286046999.1,N
1506899015.3,286046998.7,N
1506899035.1,286046999.9,N
1506899055.8,286047001.2,N
1506899075.7,286046996.9,N
1506899095.5,286046996.5,N
1506899115.3,286046998.4,N
1506899135.2,286046998.9,N
1506899155.9,286046996.6,N
1506899175.7,286046999.5,N
1506899195.6,286046994.7,Y
1506899215.4,286046992.1,P
1506899235.2,286046991.8,N
1506899255.1,286046994.5,N
1506899256.0,286046994.5,N
1506899275.8,286046997.7,N
1506899295.6,286046999.2,N
1506899315.5,286046999.0,N
1506899335.3,286047001.2,N
1506899355.1,286046997.6,N
1506899375.9,286046995.9,N
1506899395.7,286046996.3,N
1506899415.5,286046991.7,Y
1506899435.4,286046996.9,P
1506899455.2,286047000.3,N
1506899475.0,286047001.9,N
1506899475.9,286047001.9,N
1506899495.8,286047001.8,N
1506899515.6,286047002.4,N
1506899535.4,286046999.1,N
1506899555.2,286046997.2,N
1506899575.1,286046996.5,N
1506899576.0,286046996.5,N
1506899595.8,286046997.4,N
1506899615.6,286046999.6,N
1506899635.5,286046997.0,N
1506899655.3,286046999.4,N
1506899675.1,286046999.1,N
1506899695.9,286046997.7,N
1506899715.7,286047000.1,N
1506899735.5,286047005.4,N
1506899755.4,286047008.4,Y
1506899775.2,286047012.5,P
1506899795.0,286047018.0,N
1506899795.9,286047018.0,N
1506899815.8,286047021.9,N
1506899835.6,286047019.1,N
1506899855.4,286047020.6,N
1506899875.3,286047023.3,Y
1506899895.1,286047006.1,P
1506899896.0,286047006.1,N
1506899915.8,286047006.7,N
1506899935.7,286047008.0,N
1506899955.5,286047010.8,N
1506899975.3,286047011.4,Y
1506899995.2,286047001.7,P
1506900015.9,286047002.4,N
1506900035.7,286047003.9,N
1506900055.6,286047008.5,Y
1506900075.4,286047003.1,P
1506900095.2,286047003.3,P
1506900115.1,286047004.9,P
1506900116.0,286047004.9,Y
1506900135.8,286047003.7,P
1506900155.6,286047001.8,P
1506900175.5,286047003.2,P
1506900195.3,286047003.3,Y
1506900215.1,286047003.9,P
1506900235.9,286047000.4,N
1506900255.7,286047002.5,N
1506900275.5,286047003.9,N
1506900295.4,286047006.7,Y
1506900315.2,286047004.0,P
1506900335.0,286047005.7,P
1506900335.9,286047005.7,P
1506900355.8,286047005.7,Y
1506900375.6,286047001.5,P
1506900395.4,286047006.8,P
1506900415.3,286047005.0,N
1506900435.1,286047004.8,N
1506900436.0,286047004.8,N
1506900455.8,286047006.7,Y
1506900475.7,286047003.2,P
1506900495.5,286047002.5,P
1506900515.3,286046997.1,P
1506900535.2,286046993.7,N
1506900555.9,286046990.5,N
1506900575.7,286046991.6,N
1506900595.6,286046986.5,N
1506900615.4,286046987.6,N
1506900635.2,286046984.3,N
1506900655.0,286046982.7,N
1506900655.9,286046982.7,N
1506900675.8,286046980.7,N
1506900695.6,286046981.7,N
1506900715.4,286046980.4,N
1506900735.3,286046978.3,N
1506900755.1,286046976.6,N
1506900775.8,286046975.0,N
1506900795.7,286046973.5,N
1506900815.5,286046970.8,Y
1506900835.3,286046983.6,P
1506900855.2,286046981.9,P
1506900875.9,286046979.9,P
1506900895.7,286046974.4,Y
1506900915.6,286046991.2,P
1506900935.4,286046989.4,N
1506900955.2,286046990.6,N
1506900975.1,286046991.0,N
1506900976.0,286046991.0,N
1506900995.8,286046989.6,Y
1506901015.6,286046999.1,P
1506901035.5,286046998.2,N
1506901055.3,286046999.9,N
1506901075.1,286047001.8,N
1506901095.9,286046998.9,N
1506901115.7,286047000.4,N
1506901135.5,286046999.3,N
1506901155.4,286046996.9,N
1506901175.2,286046998.2,N
1506901195.0,286046996.6,N
1506901195.9,286046996.6,N
1506901215.7,286046996.9,N
1506901235.6,286047000.0,N
1506901255.4,286047004.1,N
1506901275.2,286047001.5,N
1506901295.1,286047002.1,N
1506901296.0,286047002.1,N
1506901315.8,286047000.6,N
1506901335.6,286047000.7,N
1506901355.5,286046998.1,N
1506901375.3,286046999.0,N
1506901395.1,286046998.1,N
1506901415.9,286047002.4,N
1506901435.7,286046998.1,N
1506901455.5,286046998.9,N
1506901475.4,286046998.1,N
1506901495.2,286046999.3,N
1506901515.0,286046995.1,N
1506901515.9,286046995.1,N
1506901535.7,286046992.6,N
1506901555.6,286046994.3,N
1506901575.4,286046989.1,Y
1506901595.2,286046991.0,P
1506901615.1,286046991.4,N
1506901616.0,286046991.4,N
1506901635.8,286046991.8,N
1506901655.6,286046994.4,N
1506901675.5,286046996.4,N
1506901695.3,286046993.4,N
1506901715.1,286046993.8,N
1506901735.9,286046997.2,N
1506901755.7,286047000.0,N
1506901775.5,286047000.5,N
1506901795.4,286046999.3,N
1506901815.2,286046991.8,N
1506901835.0,286046996.3,N
1506901835.9,286046996.3,N
1506901855.8,286046999.3,N
1506901875.6,286047004.0,N
1506901895.4,286047010.4,N
1506901915.3,286047010.9,N
1506901935.1,286047016.5,N
1506901936.0,286047016.5,N
1506901955.8,286047017.7,N
1506901975.7,286047022.6,N
1506901995.5,286047022.5,N
1506902015.3,286047025.3,N
1506902035.1,286047027.0,N
1506902055.9,286047028.9,N
1506902075.7,286047030.6,N
1506902095.5,286047034.8,N
1506902115.4,286047030.9,N
1506902135.2,286047032.4,N
1506902155.0,286047027.0,N
1506902155.9,286047027.0,N
1506902175.8,286047028.9,N
1506902195.6,286047031.4,N
1506902215.4,286047033.3,N
1506902235.3,286047034.5,N
1506902255.1,286047037.4,N
1506902256.0,286047037.4,N
1506902275.8,286047034.1,N
1506902295.7,286047034.8,N
1506902315.5,286047034.6,N
1506902335.3,286047034.6,N
1506902355.2,286047034.4,N
1506902375.9,286047033.7,Y
1506902395.7,286047014.3,P
